(332819) = 2009 WQ252

Discovered at Mount Lemmon on 2009-11-08 by Mt. Lemmon Survey.

Orbit

Orbit type: Main Belt

Note: WebGL enabled browser required.

epoch2022-01-21.0
epoch JD2459600.5
perihelion date2017-02-25.53049
perihelion JD2457810.03049
argument of perihelion (°)131.02716
ascending node (°)64.23378
inclination (°)19.03806
eccentricity0.0881176
perihelion distance (AU)2.8477284
Tisserand w.r.t. Jupiter3.1
ΔV w.r.t. Earth (km/sec)12.1
semimajor axis (AU)3.1229118
mean anomaly (°)319.76519
mean daily motion (°/day)0.17859290
aphelion distance (AU)3.398
period (years)5.52
P-vector [x]-0.92757573
P-vector [y]-0.35583851
P-vector [z]0.11393958
Q-vector [x]0.23088058
Q-vector [y]-0.78563683
Q-vector [z]-0.57399383
absolute magnitude15.71
phase slope0.15
uncertainty0
referenceMPO 697769
observations used270
oppositions11
arc length (days)5828
first opposition used2006
last opposition used2022
residual rms (arc-secs)0.73
perturbers coarse indicatorM-v
perturbers precise indicator003Ek
first observation date used2006-05-01.0
last observation date used2022-04-15.0
computer namePan
JD of orbit computation2456966.823751
perihelion JD uncertainty (days)3.9364E-04
argument of perihelion uncertainty (°)6.1491E-05
ascending node uncertainty (°)1.9094E-05
inclination uncertainty (°)9.7590E-06
eccentricity uncertainty 9.1344E-08
perihelion distance uncertainty (AU)2.4648E-07
Minimum Orbit Intersection Distances (in AU)
for orbit epoch: 2458200.5, reference: MPO411237
Mercury2.41828
Venus2.13604
Earth1.86872
Mars1.305
Jupiter1.66559
Saturn5.84644
Uranus15.485
Neptune26.5096

Observations

281 total observations over interval: 2006 05 01.23850 – 2022 05 15.380088
These data are available for download (format description).

Date (UT) J2000 RA J2000 Dec Magn Location Ref
2006 05 01.23850 14 03 33.26 +04 26 07.2 19.7 V 703 – Catalina Sky Survey MPS 378736
2006 05 01.24602 14 03 32.90 +04 26 05.9 19.6 V 703 – Catalina Sky Survey MPS 378736
2006 05 01.25354 14 03 32.47 +04 26 03.1 19.9 V 703 – Catalina Sky Survey MPS 378736
2006 05 01.26104 14 03 32.07 +04 26 02.0 19.4 V 703 – Catalina Sky Survey MPS 378736
2009 11 08.41068 05 14 30.91 +25 42 58.8 20.1 V G96 – Mt. Lemmon Survey MPS 312825
2009 11 08.41654 05 14 30.62 +25 42 59.9 20.3 V G96 – Mt. Lemmon Survey MPS 312825
2009 11 08.42235 05 14 30.44 +25 43 01.8 20.1 V G96 – Mt. Lemmon Survey MPS 312825
2009 11 08.42904 05 14 30.19 +25 43 03.6 20.2 V G96 – Mt. Lemmon Survey MPS 312825
2009 11 26.29426 04 59 56.33 +26 52 59.8 20.4 V 691 – Steward Observatory, Kitt Peak-Spacewatch MPS 307463
2009 11 26.31196 04 59 55.32 +26 53 03.9 20.1 V 691 – Steward Observatory, Kitt Peak-Spacewatch MPS 307463
2009 11 26.32993 04 59 54.22 +26 53 07.7 20.4 V 691 – Steward Observatory, Kitt Peak-Spacewatch MPS 307463
2009 12 13.21079 04 43 00.26 +27 44 16.4 20.4 V G96 – Mt. Lemmon Survey MPS 307463
2009 12 13.21494 04 43 00.04 +27 44 17.0 20.1 V G96 – Mt. Lemmon Survey MPS 307463
2009 12 13.21907 04 42 59.76 +27 44 18.0 20.1 V G96 – Mt. Lemmon Survey MPS 307463
2009 12 13.22311 04 42 59.50 +27 44 18.4 20.5 V G96 – Mt. Lemmon Survey MPS 307463
2009 12 18.27113 04 38 01.78 +27 56 05.1 19.9 V G96 – Mt. Lemmon Survey MPS 312825
2009 12 18.27804 04 38 01.39 +27 56 05.7 19.8 V G96 – Mt. Lemmon Survey MPS 312825
2009 12 18.28660 04 38 00.88 +27 56 06.9 19.7 V G96 – Mt. Lemmon Survey MPS 312825
2009 12 18.29359 04 38 00.49 +27 56 07.8 19.8 V G96 – Mt. Lemmon Survey MPS 312825
2010 02 20.785917 04 21 08.14 +29 43 06.6   C51 – WISE MPS 313644
2010 02 20.918221 04 21 12.36 +29 43 22.6   C51 – WISE MPS 313644
2010 02 21.050525 04 21 16.522 +29 43 40.84   C51 – WISE MPS 904085
2010 02 21.116741 04 21 18.60 +29 43 48.8   C51 – WISE MPS 313644
2010 02 21.18296 04 21 20.68 +29 43 58.5   C51 – WISE MPS 313644
2010 02 21.249045 04 21 22.80 +29 44 06.1   C51 – WISE MPS 372112
2010 02 21.31526 04 21 24.90 +29 44 15.0   C51 – WISE MPS 313644
2010 02 21.447565 04 21 29.170 +29 44 31.96   C51 – WISE MPS 904085
2010 02 23.30021 04 22 30.97 +29 48 34.6   C51 – WISE MPS 372112
2010 02 23.43251 04 22 35.54 +29 48 50.6   C51 – WISE MPS 372112
2010 02 23.69712 04 22 44.79 +29 49 26.6   C51 – WISE MPS 372112
2010 02 23.82955 04 22 49.49 +29 49 43.8   C51 – WISE MPS 372112
2010 02 23.89564 04 22 52.01 +29 49 53.3   C51 – WISE MPS 378736
2010 02 24.02794 04 22 56.48 +29 50 10.7   C51 – WISE MPS 372112
2010 02 24.16037 04 23 01.23 +29 50 28.0   C51 – WISE MPS 372112
2010 02 24.42498 04 23 10.47 +29 51 03.0   C51 – WISE MPS 378736
2011 02 11.31369 11 38 09.09 +32 53 20.2 20.6 V 703 – Catalina Sky Survey MPS 375649
2011 02 11.31995 11 38 08.84 +32 53 23.4 20.4 V 703 – Catalina Sky Survey MPS 375649
2011 02 11.32624 11 38 08.70 +32 53 25.0 20.6 V 703 – Catalina Sky Survey MPS 375649
2011 02 26.38773 11 26 58.34 +34 36 41.7 19.2 V 703 – Catalina Sky Survey MPS 378736
2011 02 26.39515 11 26 57.84 +34 36 44.0 20.2 V 703 – Catalina Sky Survey MPS 378736
2011 02 26.40269 11 26 57.48 +34 36 47.5 19.7 V 703 – Catalina Sky Survey MPS 378736
2011 02 26.41017 11 26 57.04 +34 36 50.8 19.9 V 703 – Catalina Sky Survey MPS 378736
2011 03 05.35899 11 20 43.72 +35 08 46.9 20.2 V 703 – Catalina Sky Survey MPS 375649
2011 03 05.36869 11 20 43.11 +35 08 49.2 20.0 V 703 – Catalina Sky Survey MPS 375649
2011 03 05.37841 11 20 42.50 +35 08 51.0 20.0 V 703 – Catalina Sky Survey MPS 375649
2011 03 05.38816 11 20 42.00 +35 08 53.8 19.7 V 703 – Catalina Sky Survey MPS 375649
2011 03 14.36855 11 12 26.664 +35 30 42.63 19.8 i F51 – Pan-STARRS 1, Haleakala MPS 381256
2011 03 14.38177 11 12 25.926 +35 30 43.55 19.8 i F51 – Pan-STARRS 1, Haleakala MPS 381256
2011 03 14.39704 11 12 25.054 +35 30 44.49 20.0 r F51 – Pan-STARRS 1, Haleakala MPS 381256
2011 03 14.40900 11 12 24.370 +35 30 45.30 20.0 r F51 – Pan-STARRS 1, Haleakala MPS 381256
2012 05 12.49299 17 09 09.545 -25 39 16.74 19.6 i F51 – Pan-STARRS 1, Haleakala MPS 423980
2012 05 12.50364 17 09 09.056 -25 39 20.13 19.7 i F51 – Pan-STARRS 1, Haleakala MPS 423980
2012 06 12.35576 16 40 09.441 -28 01 41.35 20.0 w F51 – Pan-STARRS 1, Haleakala MPS 426530
2012 06 12.36973 16 40 08.592 -28 01 44.49 20.2 w F51 – Pan-STARRS 1, Haleakala MPS 426530
2012 06 12.39775 16 40 06.893 -28 01 50.41 20.1 w F51 – Pan-STARRS 1, Haleakala MPS 426530
2014 10 23.31563 02 57 53.95 +04 47 01.3 20.1 r G45 – Space Surveillance Telescope, Atom Site MPS 558356
2014 10 23.32799 02 57 53.37 +04 47 00.4 20.2 r G45 – Space Surveillance Telescope, Atom Site MPS 558356
2014 10 23.34029 02 57 52.79 +04 47 00.2 20.6 r G45 – Space Surveillance Telescope, Atom Site MPS 558356
2014 10 23.35201 02 57 52.14 +04 46 59.7 20.3 r G45 – Space Surveillance Telescope, Atom Site MPS 558356
2014 10 28.42605 02 53 37.664 +04 43 51.62 21.1 w F51 – Pan-STARRS 1, Haleakala MPS 544147
2014 10 28.42803 02 53 37.596 +04 43 51.81 21.0 w F51 – Pan-STARRS 1, Haleakala MPS 544147
2014 10 28.43684 02 53 37.102 +04 43 51.20 21.1 w F51 – Pan-STARRS 1, Haleakala MPS 544147
2014 10 28.43883 02 53 37.006 +04 43 51.25 20.9 w F51 – Pan-STARRS 1, Haleakala MPS 544147
2014 10 28.44763 02 53 36.530 +04 43 50.86 20.8 w F51 – Pan-STARRS 1, Haleakala MPS 544147
2014 10 28.44959 02 53 36.448 +04 43 50.87 21.0 w F51 – Pan-STARRS 1, Haleakala MPS 544147
2014 10 28.45836 02 53 35.970 +04 43 50.44 20.8 w F51 – Pan-STARRS 1, Haleakala MPS 544147
2014 10 28.46033 02 53 35.864 +04 43 50.61 20.8 w F51 – Pan-STARRS 1, Haleakala MPS 544147
2014 11 10.36710 02 42 16.678 +04 43 13.80 20.0 i F51 – Pan-STARRS 1, Haleakala MPS 545585
2014 11 10.37915 02 42 16.017 +04 43 13.74 20.2 i F51 – Pan-STARRS 1, Haleakala MPS 545585
2014 11 10.39122 02 42 15.385 +04 43 14.62 20.3 i F51 – Pan-STARRS 1, Haleakala MPS 545585
2014 11 10.40333 02 42 14.703 +04 43 14.91 20.4 i F51 – Pan-STARRS 1, Haleakala MPS 545585
2014 11 18.21938 02 35 33.50 +04 49 29.4 20.2 V G96 – Mt. Lemmon Survey MPS 547498
2014 11 18.22511 02 35 33.18 +04 49 29.1 21.0 V G96 – Mt. Lemmon Survey MPS 547498
2014 11 18.23084 02 35 32.96 +04 49 29.9 20.2 V G96 – Mt. Lemmon Survey MPS 547498
2014 11 18.23657 02 35 32.61 +04 49 30.5 20.2 V G96 – Mt. Lemmon Survey MPS 547498
2014 11 18.26551 02 35 31.10 +04 49 32.6 20.2 V G96 – Mt. Lemmon Survey MPS 547498
2014 11 18.27258 02 35 30.79 +04 49 32.8 19.9 V G96 – Mt. Lemmon Survey MPS 547498
2014 11 18.27966 02 35 30.40 +04 49 33.6 20.0 V G96 – Mt. Lemmon Survey MPS 547498
2014 11 18.28678 02 35 30.06 +04 49 34.0 19.9 V G96 – Mt. Lemmon Survey MPS 547498
2014 11 18.34917 02 35 26.88 +04 49 38.3 20.5 V G96 – Mt. Lemmon Survey MPS 547498
2014 11 18.35681 02 35 26.51 +04 49 38.7 21.1 V G96 – Mt. Lemmon Survey MPS 547498
2014 11 18.36447 02 35 26.11 +04 49 39.4 20.3 V G96 – Mt. Lemmon Survey MPS 547498
2014 11 18.37212 02 35 25.74 +04 49 40.2 20.6 V G96 – Mt. Lemmon Survey MPS 547498
2014 11 23.32793 02 31 28.137 +04 56 44.46 20.6 w F51 – Pan-STARRS 1, Haleakala MPS 549501
2014 11 23.34035 02 31 27.544 +04 56 45.64 20.6 w F51 – Pan-STARRS 1, Haleakala MPS 549501
2014 11 23.35277 02 31 26.950 +04 56 47.01 20.6 w F51 – Pan-STARRS 1, Haleakala MPS 549501
2015 01 16.23362 02 16 54.896 +08 44 48.89 21.5 w F51 – Pan-STARRS 1, Haleakala MPS 562382
2015 01 16.24585 02 16 55.080 +08 44 53.21 21.7 w F51 – Pan-STARRS 1, Haleakala MPS 562382
2015 01 16.25804 02 16 55.251 +08 44 57.97 21.8 w F51 – Pan-STARRS 1, Haleakala MPS 562382
2015 12 05.60986 08 07 28.040 +36 57 44.33 20.6 r F51 – Pan-STARRS 1, Haleakala MPS 659496
2015 12 05.61893 08 07 27.892 +36 57 48.83 20.6 r F51 – Pan-STARRS 1, Haleakala MPS 659496
2015 12 05.62808 08 07 27.733 +36 57 53.60 20.3 r F51 – Pan-STARRS 1, Haleakala MPS 659496
2015 12 05.63776 08 07 27.563 +36 57 58.74 20.4 r F51 – Pan-STARRS 1, Haleakala MPS 659496
2015 12 18.40796 08 01 48.13 +38 50 19.0 20.4 r G45 – Space Surveillance Telescope, Atom Site MPS 663862
2015 12 18.42080 08 01 47.59 +38 50 26.8 20.6 r G45 – Space Surveillance Telescope, Atom Site MPS 663862
2015 12 18.42720 08 01 47.45 +38 50 29.9 20.7 r G45 – Space Surveillance Telescope, Atom Site MPS 663862
